Regional Weather Roundup
Issued by NWS

Home | Current Version | Previous Version | Graphics & Text | Print | Product List | Glossary On
Versions: 1 2 3 4 5 6 7 8 9 10 11 12 13 14 15 16 17 18 19 20 21 22 23 24 25 26 27 28 29 30 31 32 33 34 35 36 37 38 39 40 41 42 43 44 45 46 47 48 49 50
000
ASUS43 KFSD 220010
RWRSD

WEATHER ROUNDUP FOR SOUTH DAKOTA
NATIONAL WEATHER SERVICE SIOUX FALLS SD
600 PM CST FRI NOV 21 2014

NOTE: "FAIR" INDICATES FEW OR NO CLOUDS BELOW 12,000 FEET WITH NO
SIGNIFICANT WEATHER AND/OR OBSTRUCTIONS TO VISIBILITY.


SDZ001>005-009-010-012>017-220100-
NORTHWEST AND NORTH CENTRAL SOUTH DAKOTA

CITY           SKY/WX    TMP DP  RH WIND       PRES   REMARKS
BUFFALO          N/A     41  26  55 SW8       29.73R
FAITH            N/A     41  25  53 SW8       29.80S
MOBRIDGE       PTCLDY    33  28  81 SE7       29.75S WCI  27
$$

SDZ012>016-024>037-041>051-057-063-072>074-220100-
SOUTHWEST AND SOUTH CENTRAL SOUTH DAKOTA

CITY           SKY/WX    TMP DP  RH WIND       PRES   REMARKS
RAPID CTY ARPT CLEAR     38  29  70 CALM      29.84S
PIERRE         CLOUDY    36  27  69 SW3       29.82R
CUSTER         PTCLDY    35  20  54 CALM      29.85S
ELLSWORTH AFB  CLEAR     40  30  68 SW5       29.83S
PHILIP         PTCLDY    40  29  64 W8        29.83F
PINE RIDGE     CLEAR     39  27  62 W3        29.85S
SPEARFISH      FAIR      36  27  69 S13       29.84S
WINNER         FAIR      43  31  62 W7        29.85R
$$

SDZ004>011-016>023-039-040-220100-
NORTHEAST SOUTH DAKOTA

CITY           SKY/WX    TMP DP  RH WIND       PRES   REMARKS
ABERDEEN       CLOUDY    34  28  79 S13       29.80S WCI  25
WATERTOWN      CLOUDY    33  27  78 S10       29.82F WCI  25
SISSETON         N/A     36  28  73 S12       29.76F
$$

SDZ017-020-022-023-036>040-048>070-220100-
SOUTHEAST SOUTH DAKOTA

CITY           SKY/WX    TMP DP  RH WIND       PRES   REMARKS
SIOUX FALLS    CLOUDY    34  27  75 S9G20     29.90F WCI  27
HURON          MOCLDY    36  30  79 S5        29.84S
CHAMBERLAIN    CLOUDY    38  31  76 SW7       29.84S
MITCHELL       MOCLDY    36  31  82 S8        29.86F
YANKTON        CLOUDY    39  28  65 S8        29.91F
$$

ABBREVIATIONS USED IN REMARKS
   TC - TEMPERATURE IN CELSIUS
  WCI - WIND CHILL INDEX
   HX - HEAT INDEX
  VSB - VISIBILITY



USA.gov is the U.S. government's official web portal to all federal, state and local government web resources and services.